Weather in Cefalù

Italy     38°01′58″N   14°00′54″E
temp.,
°C
wind,
m/s
gust,
m/s
humid.,
%
clouds,
%
prec.,
mm/h
press.,
hPa
HPBL,
m
23 april, fri
fri2323:00+14s2280100 0.0 101623
02:00+12wnw1295100 0.7 101694
05:00+12se2388100 0.5 101554
08:00+13nne2288100 0.5 1015161
11:00+13ese1188100 1.2 1015145
14:00+12nw2295100 2.7 1016181
17:00+12e2396100 5.1 1015193
20:00+11ese1291100 10.4 101681
24 april, sat
sat2423:00+11wnw129676 1.0 1017100
02:00+11nne4598100 2.9 1016382
05:00+11n3598100 0.9 1015461
08:00+11nne469694 2.9 1017449
11:00+11nne349696 1.0 1018340
14:00+13n348640 1.9 1018560
17:00+13nne347725 0.3 1018617
20:00+10se12872 0.3 101987
25 april, sun
sun2523:00+10se22764 0.0 102044
02:00+10sse12775 0.0 102028
05:00+9se22785 0.0 101932
08:00+12ese1272100 0.0 1019136
11:00+16nne325662 0.0 1019596
14:00+17nne32535 0.0 1019695
17:00+16ne32602 0.0 1018452
20:00+11ese22814 0.0 101938
26 april, mon
mon2623:00+11s22774 0.0 102031
02:00+11sse22746 0.0 101824
05:00+11sse2270100 0.0 101728
08:00+14ssw347155 0.0 1017107
11:00+19sse1352100 0.0 1016480
14:00+21se244793 0.0 1015619
17:00+21s364768 0.0 1011416
20:00+15s5760100 0.0 1011125
27 april, tue
tue2723:00+14s7952100 0.1 1011118
02:00+15s6843100 0.1 1009102
05:00+14s5656100 0.0 100776
08:00+16s456068 0.0 100699
11:00+19w2359100 0.0 1007472
14:00+19n3259100 0.0 1007441
17:00+17ne2363100 0.0 1008257
20:00+14se1176100 0.0 100811